Regional Weather Roundup
Issued by NWS

Home | Current Version | Previous Version | Graphics & Text | Print | Product List | Glossary On
Versions: 1 2 3 4 5 6 7 8 9 10 11 12 13 14 15 16 17 18 19 20 21 22 23 24 25 26 27 28 29 30 31 32 33 34 35 36 37 38 39 40 41 42 43 44 45 46 47 48 49 50
000
ASUS45 KCYS 261910
RWRWY

WYOMING REGIONAL WEATHER ROUNDUP
NATIONAL WEATHER SERVICE CHEYENNE WY
100 PM MDT THU MAR 26 2015

NOTE:  "FAIR" INDICATES FEW OR NO CLOUDS BELOW 12,000 FEET
WITH NO SIGNIFICANT WEATHER AND/OR OBSTRUCTIONS TO VISIBILITY.

WYZ001-262000-
YELLOWSTONE NATIONAL PARK

CITY           SKY/WX    TMP DP  RH WIND       PRES   REMARKS
LK YELLOWSTONE   N/A     38  27  64 W8        30.36F WCI  32
W YELLOWSTONE  NOT AVBL

$$
WYZ002>013-054>058-071-098>099-262000-
NORTHERN WYOMING

CITY           SKY/WX    TMP DP  RH WIND       PRES   REMARKS
JACKSON        NOT AVBL
CODY           PTSUNNY   57  28  33 W13G26    30.17S
GREYBULL       FAIR      57  26  30 N10       30.16F
WORLAND        FAIR      55  27  34 NE7       30.17F
SHERIDAN       CLOUDY    53  33  46 N15       30.14F
BUFFALO        CLOUDY    49  34  56 N22G28    30.15F
GILLETTE       CLOUDY    49  34  56 NW15G24   30.14F
HULETT         CLOUDY    45  30  57 NW8       30.14S
NEWCASTLE      FAIR      45  32  61 NW26      30.14F

$$
WYZ014>020-022>026-101>103-262000-
CENTRAL WYOMING

CITY           SKY/WX    TMP DP  RH WIND       PRES   REMARKS
BIG PINEY      FAIR      50  24  36 N22G30    30.31S
PINEDALE       FAIR      46  28  49 W24       30.29F
DUBOIS         FAIR      46  25  42 NW22G30   30.27F
LANDER         FAIR      59  26  28 NW10      30.17F
RIVERTON       FAIR      55  23  28 NE10      30.18F
CASPER         CLOUDY    52  25  35 W13G23    30.18F
DOUGLAS        CLOUDY    52  24  33 NW20G26   30.16F

$$
WYZ021-027>030-104>119-262000-
SOUTHERN WYOMING

CITY           SKY/WX    TMP DP  RH WIND       PRES   REMARKS
EVANSTON       FAIR      51  27  39 W10G17    30.38F
KEMMERER       FAIR      43  28  56 W18G29    30.38S
FORT BRIDGER   FAIR      53  26  34 W17G28    30.38F
ROCK SPRINGS   FAIR      51  24  34 W23G33    30.30F
DIXON          FAIR      49  23  37 W9        30.34F
RAWLINS        FAIR      50  22  33 W21G29    30.25F
SARATOGA       FAIR      46  21  36 W23       30.28F
LARAMIE        CLOUDY    45  20  36 NW20G26   30.19F
CHEYENNE       CLOUDY    51  19  28 NW28G40   30.16F
TORRINGTON     CLOUDY    50  22  33 NW17G26   30.15F
PINE BLUFFS    CLOUDY    52  21  30 NW24G35   30.16F

$$



USA.gov is the U.S. government's official web portal to all federal, state and local government web resources and services.